This is the latest recevied weather packets stored in our database for station/object KD5VOO. If no packets are shown the sender has not sent any weather packets the latest 10 day(s).
| Time | Temp. | Humidity | Pressure | Rain* | Wind** | Luminosity | Snow |
|---|---|---|---|---|---|---|---|
| 1777470769 | 25° C | 64% | 1012.2 hPa | 0 mm | - | 63 W/m² | - |
| 1777470465 | 25° C | 64% | 1012.2 hPa | 0 mm | - | 72 W/m² | - |
| 1777470161 | 25° C | 64% | 1012.2 hPa | 0 mm | - | 66 W/m² | - |
| 1777469858 | 24.44° C | 65% | 1012.2 hPa | 0 mm | - | 67 W/m² | - |
| 1777469554 | 24.44° C | 65% | 1012.2 hPa | 0 mm | - | 86 W/m² | - |
| 1777469254 | 23.89° C | 66% | 1012.2 hPa | 0 mm | - | 65 W/m² | - |
| 1777468948 | 23.89° C | 68% | 1011.9 hPa | 0 mm | - | 53 W/m² | - |
| 1777468645 | 23.33° C | 70% | 1011.9 hPa | 0 mm | - | 48 W/m² | - |
| 1777468342 | 23.33° C | 72% | 1011.9 hPa | 0 mm | - | 42 W/m² | - |
| 1777468038 | 22.78° C | 73% | 1011.9 hPa | 0 mm | - | 37 W/m² | - |
| 1777467734 | 22.78° C | 74% | 1011.5 hPa | 0 mm | - | 33 W/m² | - |
| 1777467429 | 22.78° C | 74% | 1011.5 hPa | 0 mm | - | 31 W/m² | - |
| 1777467125 | 22.22° C | 74% | 1011.9 hPa | 0 mm | - | 30 W/m² | - |
| 1777466823 | 22.22° C | 74% | 1012.2 hPa | 0 mm | - | 29 W/m² | - |
| 1777466520 | 22.22° C | 74% | 1012.2 hPa | 0 mm | - | 27 W/m² | - |
| 1777466216 | 22.22° C | 74% | 1012.2 hPa | 0 mm | - | 25 W/m² | - |
| 1777465913 | 21.67° C | 74% | 1012.2 hPa | 0 mm | - | 24 W/m² | - |
| 1777465609 | 21.67° C | 74% | 1012.2 hPa | 0 mm | - | 22 W/m² | - |
| 1777465304 | 21.67° C | 74% | 1011.9 hPa | 0 mm | - | 20 W/m² | - |
| 1777464998 | 21.67° C | 74% | 1011.9 hPa | 0 mm | - | 17 W/m² | - |
| 1777464694 | 21.67° C | 74% | 1011.9 hPa | 0 mm | - | 13 W/m² | - |
| 1777464391 | 21.67° C | 74% | 1011.5 hPa | 0 mm | - | 12 W/m² | - |
| 1777464087 | 21.67° C | 74% | 1011.5 hPa | 0 mm | - | 9 W/m² | - |
| 1777463786 | 21.67° C | 74% | 1011.2 hPa | 0 mm | - | 9 W/m² | - |
| 1777463481 | 21.67° C | 74% | 1011.2 hPa | 0 mm | - | 7 W/m² | - |
* Rain latest hour (hover to see other rain measurements)
** Current wind speed in m/s (hover to see current wind gust speed)